DEFMD EDWC-EDXH

Flight info

Callsign DEFMD
Flight time 1h 7m
Altitude 5500
Route EDWC EDXH
Aircraft DR40/L-SFG/C

Departure

Time 2026-04-26 13:15
Airport Damme Airfield (EDWC)

Arrival

Time 2026-04-26 14:22
Airport Helgoland-Düne Airport (EDXH)
Time Latitude Longitude Altitude Speed Heading
2026-04-26 13:09 52.48866 8.18211 149 ft 0 kts 185°
2026-04-26 13:09 52.48865 8.18211 149 ft 0 kts 185°
2026-04-26 13:09 52.48864 8.18232 149 ft 0 kts 92°
2026-04-26 13:13 52.48868 8.18228 149 ft 3 kts 252°
2026-04-26 13:13 52.48854 8.18164 150 ft 11 kts 261°
2026-04-26 13:13 52.48858 8.18078 150 ft 2 kts 222°
2026-04-26 13:14 52.48834 8.18036 150 ft 5 kts 283°
2026-04-26 13:14 52.48826 8.18029 150 ft 4 kts 99°
2026-04-26 13:14 52.48769 8.18425 155 ft 66 kts 96°
2026-04-26 13:14 52.48671 8.19256 387 ft 77 kts 91°
2026-04-26 13:15 52.48599 8.20184 667 ft 86 kts 94°
2026-04-26 13:15 52.48508 8.21115 968 ft 79 kts 102°
2026-04-26 13:15 52.48093 8.21686 996 ft 86 kts 170°
2026-04-26 13:15 52.47559 8.21321 1039 ft 86 kts 245°
2026-04-26 13:16 52.47626 8.20351 1026 ft 86 kts 290°
2026-04-26 13:16 52.47813 8.19449 894 ft 85 kts 292°
2026-04-26 13:16 52.48010 8.18534 779 ft 85 kts 285°
2026-04-26 13:16 52.48157 8.17592 657 ft 86 kts 288°
2026-04-26 13:17 52.48728 8.16824 517 ft 67 kts 26°
2026-04-26 13:17 52.48914 8.17473 309 ft 75 kts 104°
2026-04-26 13:18 52.48677 8.19021 198 ft 71 kts 99°
2026-04-26 13:18 52.48562 8.19849 500 ft 74 kts 91°
2026-04-26 13:18 52.49127 8.20862 1167 ft 66 kts 356°
2026-04-26 13:19 52.49549 8.20556 1437 ft 72 kts 326°
2026-04-26 13:19 52.49972 8.20049 1706 ft 79 kts 326°
2026-04-26 13:19 52.50420 8.19516 2013 ft 81 kts 326°
2026-04-26 13:19 52.50908 8.19038 2319 ft 82 kts 336°
2026-04-26 13:20 52.51433 8.18687 2619 ft 83 kts 342°
2026-04-26 13:20 52.51984 8.18423 2921 ft 84 kts 347°
2026-04-26 13:20 52.52553 8.18218 3225 ft 84 kts 350°
2026-04-26 13:20 52.53120 8.18055 3523 ft 83 kts 352°
2026-04-26 13:21 52.53688 8.17919 3826 ft 82 kts 353°
2026-04-26 13:21 52.54058 8.17841 4023 ft 81 kts 353°
2026-04-26 13:21 52.54794 8.17700 4404 ft 80 kts 354°
2026-04-26 13:21 52.55344 8.17604 4678 ft 80 kts 354°
2026-04-26 13:22 52.55896 8.17513 4956 ft 80 kts 354°
2026-04-26 13:22 52.56441 8.17424 5234 ft 78 kts 354°
2026-04-26 13:22 52.56977 8.17338 5499 ft 78 kts 353°
2026-04-26 13:22 52.57522 8.17253 5754 ft 79 kts 353°
2026-04-26 13:23 52.58123 8.17160 5792 ft 97 kts 356°
2026-04-26 13:23 52.58781 8.17077 5760 ft 94 kts 355°
2026-04-26 13:23 52.59420 8.16980 5757 ft 91 kts 355°
2026-04-26 13:23 52.60042 8.16883 5757 ft 88 kts 355°
2026-04-26 13:24 52.60656 8.16788 5758 ft 86 kts 355°
2026-04-26 13:24 52.61251 8.16696 5762 ft 89 kts 355°
2026-04-26 13:24 52.61890 8.16600 5765 ft 93 kts 355°
2026-04-26 13:24 52.62549 8.16502 5763 ft 97 kts 355°
2026-04-26 13:25 52.63232 8.16400 5762 ft 99 kts 355°
2026-04-26 13:25 52.63914 8.16296 5760 ft 100 kts 355°
2026-04-26 13:25 52.64611 8.16190 5758 ft 101 kts 355°
2026-04-26 13:25 52.65318 8.16081 5757 ft 101 kts 355°
2026-04-26 13:26 52.66017 8.15974 5759 ft 101 kts 355°
2026-04-26 13:26 52.66722 8.15866 5760 ft 102 kts 355°
2026-04-26 13:26 52.67427 8.15757 5760 ft 102 kts 355°
2026-04-26 13:26 52.68134 8.15647 5760 ft 102 kts 355°
2026-04-26 13:27 52.68850 8.15538 5761 ft 102 kts 355°
2026-04-26 13:27 52.69553 8.15429 5759 ft 102 kts 355°
2026-04-26 13:27 52.70261 8.15320 5760 ft 102 kts 355°
2026-04-26 13:27 52.70978 8.15210 5760 ft 102 kts 355°
2026-04-26 13:28 52.71679 8.15101 5759 ft 102 kts 355°
2026-04-26 13:28 52.72388 8.14992 5759 ft 102 kts 355°
2026-04-26 13:28 52.73101 8.14882 5759 ft 102 kts 355°
2026-04-26 13:28 52.73811 8.14772 5759 ft 102 kts 355°
2026-04-26 13:29 52.74521 8.14663 5760 ft 102 kts 355°
2026-04-26 13:29 52.74992 8.14590 5759 ft 102 kts 355°
2026-04-26 13:29 52.75943 8.14444 5759 ft 102 kts 355°
2026-04-26 13:29 52.76654 8.14334 5759 ft 102 kts 355°
2026-04-26 13:30 52.77363 8.14224 5760 ft 102 kts 355°
2026-04-26 13:30 52.78064 8.14116 5760 ft 102 kts 355°
2026-04-26 13:30 52.78782 8.14005 5761 ft 102 kts 355°
2026-04-26 13:30 52.79487 8.13897 5761 ft 102 kts 355°
2026-04-26 13:31 52.80202 8.13786 5760 ft 102 kts 355°
2026-04-26 13:31 52.80905 8.13678 5760 ft 102 kts 355°
2026-04-26 13:31 52.81612 8.13568 5761 ft 102 kts 355°
2026-04-26 13:31 52.82326 8.13457 5761 ft 102 kts 355°
2026-04-26 13:32 52.83036 8.13347 5761 ft 102 kts 355°
2026-04-26 13:32 52.83746 8.13237 5762 ft 102 kts 355°
2026-04-26 13:32 52.84446 8.13139 5761 ft 102 kts 355°
2026-04-26 13:32 52.85157 8.13017 5763 ft 102 kts 355°
2026-04-26 13:33 52.85864 8.12907 5764 ft 102 kts 355°
2026-04-26 13:33 52.86578 8.12797 5764 ft 101 kts 355°
2026-04-26 13:33 52.87274 8.12689 5762 ft 99 kts 355°
2026-04-26 13:33 52.87957 8.12580 5764 ft 99 kts 355°
2026-04-26 13:34 52.88634 8.12475 5765 ft 98 kts 355°
2026-04-26 13:34 52.89325 8.12370 5764 ft 98 kts 355°
2026-04-26 13:34 52.90005 8.12264 5763 ft 98 kts 355°
2026-04-26 13:34 52.90455 8.12195 5764 ft 98 kts 355°
2026-04-26 13:35 52.91365 8.12055 5766 ft 98 kts 355°
2026-04-26 13:35 52.92051 8.11948 5767 ft 98 kts 355°
2026-04-26 13:35 52.92727 8.11843 5764 ft 98 kts 355°
2026-04-26 13:35 52.93413 8.11736 5764 ft 98 kts 355°
2026-04-26 13:36 52.94090 8.11631 5767 ft 98 kts 355°
2026-04-26 13:36 52.94780 8.11524 5764 ft 98 kts 355°
2026-04-26 13:36 52.95454 8.11417 5765 ft 98 kts 355°
2026-04-26 13:36 52.96138 8.11312 5766 ft 98 kts 355°
2026-04-26 13:37 52.96820 8.11209 5764 ft 98 kts 355°
2026-04-26 13:37 52.97492 8.11107 5764 ft 98 kts 355°
2026-04-26 13:37 52.98172 8.11007 5764 ft 98 kts 355°
2026-04-26 13:37 52.98856 8.10904 5764 ft 98 kts 355°
2026-04-26 13:38 52.99532 8.10804 5763 ft 98 kts 355°
2026-04-26 13:38 53.00215 8.10702 5764 ft 98 kts 355°
2026-04-26 13:38 53.00895 8.10598 5765 ft 98 kts 355°
2026-04-26 13:38 53.01576 8.10495 5768 ft 98 kts 355°
2026-04-26 13:39 53.02262 8.10390 5769 ft 98 kts 355°
2026-04-26 13:39 53.02935 8.10287 5767 ft 98 kts 355°
2026-04-26 13:39 53.03617 8.10181 5769 ft 98 kts 355°
2026-04-26 13:39 53.04302 8.10074 5769 ft 98 kts 355°
2026-04-26 13:40 53.04982 8.09970 5770 ft 98 kts 355°
2026-04-26 13:40 53.05659 8.09865 5768 ft 98 kts 355°
2026-04-26 13:40 53.06340 8.09760 5767 ft 98 kts 355°
2026-04-26 13:40 53.07018 8.09653 5771 ft 98 kts 355°
2026-04-26 13:41 53.07701 8.09548 5772 ft 98 kts 355°
2026-04-26 13:41 53.08383 8.09443 5766 ft 98 kts 355°
2026-04-26 13:41 53.09055 8.09336 5769 ft 98 kts 355°
2026-04-26 13:41 53.09734 8.09229 5770 ft 98 kts 355°
2026-04-26 13:42 53.10414 8.09123 5772 ft 98 kts 355°
2026-04-26 13:42 53.11092 8.09017 5772 ft 98 kts 355°
2026-04-26 13:42 53.11768 8.08911 5772 ft 98 kts 355°
2026-04-26 13:42 53.12453 8.08804 5770 ft 98 kts 355°
2026-04-26 13:43 53.13136 8.08697 5771 ft 98 kts 355°
2026-04-26 13:43 53.13813 8.08591 5770 ft 98 kts 355°
2026-04-26 13:43 53.14494 8.08485 5770 ft 98 kts 355°
2026-04-26 13:43 53.15184 8.08378 5771 ft 98 kts 355°
2026-04-26 13:44 53.15868 8.08271 5771 ft 99 kts 355°
2026-04-26 13:44 53.16547 8.08165 5771 ft 99 kts 355°
2026-04-26 13:44 53.17240 8.08056 5772 ft 99 kts 355°
2026-04-26 13:44 53.17925 8.07950 5770 ft 99 kts 355°
2026-04-26 13:45 53.18608 8.07841 5773 ft 99 kts 354°
2026-04-26 13:45 53.19299 8.07735 5772 ft 99 kts 355°
2026-04-26 13:45 53.19981 8.07626 5772 ft 99 kts 354°
2026-04-26 13:45 53.20661 8.07518 5775 ft 99 kts 354°
2026-04-26 13:46 53.21352 8.07410 5775 ft 99 kts 355°
2026-04-26 13:46 53.22037 8.07303 5771 ft 99 kts 354°
2026-04-26 13:46 53.22719 8.07194 5772 ft 98 kts 355°
2026-04-26 13:46 53.23401 8.07087 5775 ft 98 kts 355°
2026-04-26 13:47 53.24086 8.06979 5778 ft 98 kts 355°
2026-04-26 13:47 53.24765 8.06873 5777 ft 98 kts 354°
2026-04-26 13:47 53.25451 8.06766 5775 ft 98 kts 354°
2026-04-26 13:47 53.26137 8.06658 5775 ft 98 kts 354°
2026-04-26 13:48 53.26814 8.06552 5774 ft 98 kts 354°
2026-04-26 13:48 53.27502 8.06442 5774 ft 98 kts 354°
2026-04-26 13:48 53.28185 8.06334 5774 ft 98 kts 354°
2026-04-26 13:48 53.28869 8.06227 5777 ft 98 kts 354°
2026-04-26 13:49 53.29547 8.06120 5774 ft 98 kts 354°
2026-04-26 13:49 53.30231 8.06012 5775 ft 98 kts 354°
2026-04-26 13:49 53.30909 8.05903 5776 ft 98 kts 354°
2026-04-26 13:49 53.31590 8.05796 5779 ft 98 kts 355°
2026-04-26 13:50 53.32272 8.05689 5778 ft 98 kts 354°
2026-04-26 13:50 53.32948 8.05584 5780 ft 98 kts 354°
2026-04-26 13:50 53.33632 8.05478 5779 ft 99 kts 354°
2026-04-26 13:50 53.34316 8.05369 5779 ft 99 kts 354°
2026-04-26 13:51 53.34999 8.05261 5779 ft 98 kts 354°
2026-04-26 13:51 53.35688 8.05151 5779 ft 98 kts 354°
2026-04-26 13:51 53.36364 8.05044 5777 ft 98 kts 354°
2026-04-26 13:51 53.37052 8.04935 5777 ft 98 kts 354°
2026-04-26 13:52 53.37731 8.04826 5777 ft 98 kts 354°
2026-04-26 13:52 53.38414 8.04719 5778 ft 98 kts 354°
2026-04-26 13:52 53.39084 8.04611 5778 ft 98 kts 354°
2026-04-26 13:52 53.39768 8.04504 5778 ft 98 kts 354°
2026-04-26 13:53 53.40442 8.04396 5776 ft 98 kts 354°
2026-04-26 13:53 53.41119 8.04288 5777 ft 98 kts 354°
2026-04-26 13:53 53.41805 8.04180 5777 ft 100 kts 354°
2026-04-26 13:53 53.42504 8.04071 5807 ft 99 kts 354°
2026-04-26 13:54 53.43205 8.03960 5780 ft 102 kts 354°
2026-04-26 13:54 53.43924 8.03849 5783 ft 103 kts 354°
2026-04-26 13:54 53.44638 8.03738 5781 ft 103 kts 354°
2026-04-26 13:55 53.46070 8.03509 5779 ft 103 kts 354°
2026-04-26 13:55 53.46546 8.03432 5779 ft 103 kts 354°
2026-04-26 13:55 53.48217 8.03167 5780 ft 103 kts 354°
2026-04-26 13:56 53.48927 8.03054 5780 ft 103 kts 354°
2026-04-26 13:56 53.49645 8.02936 5780 ft 103 kts 354°
2026-04-26 13:56 53.50356 8.02824 5783 ft 103 kts 354°
2026-04-26 13:56 53.51073 8.02711 5784 ft 103 kts 354°
2026-04-26 13:57 53.51783 8.02597 5783 ft 103 kts 354°
2026-04-26 13:57 53.52503 8.02482 5783 ft 103 kts 354°
2026-04-26 13:57 53.53217 8.02368 5782 ft 103 kts 354°
2026-04-26 13:57 53.53930 8.02253 5781 ft 103 kts 354°
2026-04-26 13:58 53.54649 8.02140 5783 ft 103 kts 354°
2026-04-26 13:58 53.55365 8.02026 5784 ft 103 kts 354°
2026-04-26 13:58 53.56081 8.01911 5780 ft 103 kts 354°
2026-04-26 13:58 53.56792 8.01796 5774 ft 103 kts 354°
2026-04-26 13:59 53.57498 8.01682 5776 ft 102 kts 354°
2026-04-26 13:59 53.58212 8.01567 5781 ft 102 kts 354°
2026-04-26 13:59 53.58917 8.01456 5782 ft 103 kts 354°
2026-04-26 14:00 53.61067 8.01114 5783 ft 103 kts 354°
2026-04-26 14:00 53.61775 8.01000 5782 ft 103 kts 354°
2026-04-26 14:00 53.62254 8.00924 5782 ft 103 kts 354°
2026-04-26 14:01 53.63208 8.00770 5784 ft 103 kts 354°
2026-04-26 14:01 53.63918 8.00656 5780 ft 103 kts 354°
2026-04-26 14:01 53.64636 8.00540 5781 ft 103 kts 354°
2026-04-26 14:01 53.65348 8.00425 5781 ft 103 kts 354°
2026-04-26 14:02 53.66054 8.00313 5783 ft 103 kts 354°
2026-04-26 14:02 53.66774 8.00197 5784 ft 103 kts 354°
2026-04-26 14:02 53.67493 8.00084 5784 ft 103 kts 354°
2026-04-26 14:02 53.68205 7.99969 5783 ft 103 kts 354°
2026-04-26 14:03 53.68918 7.99856 5787 ft 103 kts 354°
2026-04-26 14:03 53.69641 7.99733 5782 ft 103 kts 353°
2026-04-26 14:03 53.70348 7.99608 5781 ft 103 kts 353°
2026-04-26 14:03 53.71057 7.99479 5781 ft 102 kts 353°
2026-04-26 14:04 53.71771 7.99348 5783 ft 102 kts 353°
2026-04-26 14:04 53.72472 7.99222 5783 ft 102 kts 353°
2026-04-26 14:04 53.73180 7.99101 5783 ft 102 kts 353°
2026-04-26 14:04 53.73891 7.98982 5783 ft 102 kts 354°
2026-04-26 14:05 53.74597 7.98864 5786 ft 102 kts 354°
2026-04-26 14:05 53.75313 7.98749 5786 ft 102 kts 354°
2026-04-26 14:05 53.76017 7.98634 5785 ft 102 kts 353°
2026-04-26 14:05 53.76732 7.98519 5786 ft 102 kts 353°
2026-04-26 14:06 53.77441 7.98404 5784 ft 102 kts 353°
2026-04-26 14:06 53.78148 7.98287 5782 ft 102 kts 353°
2026-04-26 14:06 53.78854 7.98173 5784 ft 102 kts 353°
2026-04-26 14:06 53.79565 7.98058 5784 ft 102 kts 353°
2026-04-26 14:07 53.80273 7.97943 5788 ft 102 kts 353°
2026-04-26 14:07 53.80981 7.97829 5786 ft 102 kts 353°
2026-04-26 14:07 53.81686 7.97714 5785 ft 102 kts 353°
2026-04-26 14:07 53.82398 7.97597 5786 ft 102 kts 353°
2026-04-26 14:08 53.83106 7.97483 5783 ft 102 kts 354°
2026-04-26 14:08 53.83818 7.97367 5782 ft 102 kts 353°
2026-04-26 14:08 53.84517 7.97253 5785 ft 102 kts 353°
2026-04-26 14:08 53.85224 7.97138 5786 ft 102 kts 354°
2026-04-26 14:09 53.85936 7.97023 5786 ft 102 kts 354°
2026-04-26 14:09 53.86641 7.96909 5784 ft 102 kts 353°
2026-04-26 14:09 53.87356 7.96793 5786 ft 102 kts 353°
2026-04-26 14:09 53.88067 7.96683 5668 ft 102 kts 355°
2026-04-26 14:10 53.88750 7.96581 5404 ft 97 kts 354°
2026-04-26 14:10 53.89407 7.96467 5138 ft 94 kts 354°
2026-04-26 14:10 53.90050 7.96359 4877 ft 92 kts 354°
2026-04-26 14:10 53.90682 7.96256 4612 ft 91 kts 354°
2026-04-26 14:11 53.91915 7.96056 4075 ft 87 kts 354°
2026-04-26 14:11 53.92520 7.95953 3816 ft 89 kts 354°
2026-04-26 14:11 53.93138 7.95855 3554 ft 90 kts 354°
2026-04-26 14:12 53.93767 7.95752 3299 ft 93 kts 355°
2026-04-26 14:12 53.94406 7.95653 3040 ft 93 kts 354°
2026-04-26 14:12 53.94984 7.95556 3011 ft 74 kts 350°
2026-04-26 14:12 53.95575 7.95430 3061 ft 96 kts 354°
2026-04-26 14:13 53.96903 7.95237 2921 ft 94 kts 355°
2026-04-26 14:13 53.97552 7.95139 2653 ft 93 kts 354°
2026-04-26 14:13 53.98193 7.95037 2391 ft 93 kts 354°
2026-04-26 14:14 53.98832 7.94932 2130 ft 92 kts 354°
2026-04-26 14:14 53.99459 7.94825 1996 ft 89 kts 352°
2026-04-26 14:14 54.00101 7.94706 2037 ft 96 kts 353°
2026-04-26 14:14 54.00777 7.94601 2039 ft 100 kts 354°
2026-04-26 14:15 54.01482 7.94491 2038 ft 102 kts 354°
2026-04-26 14:15 54.02206 7.94374 2040 ft 108 kts 353°
2026-04-26 14:15 54.02993 7.94254 2041 ft 117 kts 354°
2026-04-26 14:15 54.03812 7.94133 2037 ft 119 kts 354°
2026-04-26 14:16 54.04615 7.94006 1889 ft 110 kts 355°
2026-04-26 14:16 54.05340 7.93874 1615 ft 101 kts 353°
2026-04-26 14:16 54.06020 7.93743 1348 ft 96 kts 354°
2026-04-26 14:16 54.06678 7.93628 1081 ft 93 kts 354°
2026-04-26 14:17 54.07314 7.93514 1055 ft 92 kts 353°
2026-04-26 14:17 54.07965 7.93419 847 ft 95 kts 355°
2026-04-26 14:17 54.08603 7.93310 903 ft 91 kts 353°
2026-04-26 14:17 54.09246 7.93204 913 ft 93 kts 354°
2026-04-26 14:18 54.09903 7.93101 914 ft 96 kts 354°
2026-04-26 14:18 54.10621 7.92990 920 ft 109 kts 354°
2026-04-26 14:18 54.11404 7.92879 918 ft 116 kts 355°
2026-04-26 14:18 54.12183 7.92769 822 ft 108 kts 356°
2026-04-26 14:19 54.12868 7.92634 668 ft 91 kts 353°
2026-04-26 14:19 54.13461 7.92501 654 ft 84 kts 352°
2026-04-26 14:19 54.14003 7.92415 644 ft 72 kts 356°
2026-04-26 14:19 54.14487 7.92274 650 ft 70 kts 328°
2026-04-26 14:20 54.14905 7.91779 625 ft 78 kts 333°
2026-04-26 14:20 54.15375 7.91278 532 ft 74 kts 329°
2026-04-26 14:20 54.15802 7.90813 510 ft 73 kts 330°
2026-04-26 14:20 54.16229 7.90367 435 ft 67 kts 333°
2026-04-26 14:21 54.16638 7.90156 410 ft 60 kts 355°
2026-04-26 14:21 54.17044 7.90363 412 ft 60 kts 20°
2026-04-26 14:21 54.17418 7.90614 396 ft 58 kts 18°
2026-04-26 14:21 54.17792 7.90872 295 ft 58 kts 20°
2026-04-26 14:22 54.18168 7.91181 118 ft 61 kts 24°
2026-04-26 14:22 54.18520 7.91479 10 ft 49 kts 24°
2026-04-26 14:22 54.18705 7.91628 6 ft 8 kts 14°